Year,Month,Day,Hour,Minute,Value (Times are PST for temperature in C)
2015,07,07,00,00,17.20
2015,07,07,00,01,17.20
2015,07,07,00,02,17.20
2015,07,07,00,03,17.20
2015,07,07,00,04,17.20
2015,07,07,00,05,17.20
2015,07,07,00,06,17.10
2015,07,07,00,07,17.10
2015,07,07,00,08,17.10
2015,07,07,00,09,17.10
2015,07,07,00,10,17.10
2015,07,07,00,11,17.10
2015,07,07,00,12,17.10
2015,07,07,00,13,17.10
2015,07,07,00,14,17.10
2015,07,07,00,15,17.00
2015,07,07,00,16,17.00
2015,07,07,00,17,17.00
2015,07,07,00,18,17.00
2015,07,07,00,19,16.90
2015,07,07,00,20,16.90
2015,07,07,00,21,16.90
2015,07,07,00,22,16.90
2015,07,07,00,23,16.90
2015,07,07,00,24,16.90
2015,07,07,00,25,16.90
2015,07,07,00,26,16.90
2015,07,07,00,27,16.90
2015,07,07,00,28,16.80
2015,07,07,00,29,16.80
2015,07,07,00,30,16.80
2015,07,07,00,31,16.80
2015,07,07,00,32,16.80
2015,07,07,00,33,16.80
2015,07,07,00,34,16.80
2015,07,07,00,35,16.80
2015,07,07,00,36,16.80
2015,07,07,00,37,16.80
2015,07,07,00,38,16.80
2015,07,07,00,39,16.70
2015,07,07,00,40,16.70
2015,07,07,00,41,16.70
2015,07,07,00,42,16.70
2015,07,07,00,43,16.70
2015,07,07,00,44,16.70
2015,07,07,00,45,16.70
2015,07,07,00,46,16.70
2015,07,07,00,47,16.70
2015,07,07,00,48,16.70
2015,07,07,00,49,16.70
2015,07,07,00,50,16.70
2015,07,07,00,51,16.70
2015,07,07,00,52,16.70
2015,07,07,00,53,16.70
2015,07,07,00,54,16.70
2015,07,07,00,55,16.60
2015,07,07,00,56,16.60
2015,07,07,00,57,16.60
2015,07,07,00,58,16.60
2015,07,07,00,59,16.60
2015,07,07,01,00,16.60
2015,07,07,01,01,16.60
2015,07,07,01,02,16.60
2015,07,07,01,03,16.60
2015,07,07,01,04,16.60
2015,07,07,01,05,16.60
2015,07,07,01,06,16.60
2015,07,07,01,07,16.50
2015,07,07,01,08,16.50
2015,07,07,01,09,16.50
2015,07,07,01,10,16.50
2015,07,07,01,11,16.40
2015,07,07,01,12,16.40
2015,07,07,01,13,16.40
2015,07,07,01,14,16.40
2015,07,07,01,15,16.40
2015,07,07,01,16,16.40
2015,07,07,01,17,16.40
2015,07,07,01,18,16.40
2015,07,07,01,19,16.40
2015,07,07,01,20,16.30
2015,07,07,01,21,16.30
2015,07,07,01,22,16.30
2015,07,07,01,23,16.30
2015,07,07,01,24,16.30
2015,07,07,01,25,16.30
2015,07,07,01,26,16.30
2015,07,07,01,27,16.30
2015,07,07,01,28,16.30
2015,07,07,01,29,16.30
2015,07,07,01,30,16.30
2015,07,07,01,31,16.30
2015,07,07,01,32,16.30
2015,07,07,01,33,16.20
2015,07,07,01,34,16.20
2015,07,07,01,35,16.20
2015,07,07,01,36,16.20
2015,07,07,01,37,16.20
2015,07,07,01,38,16.20
2015,07,07,01,39,16.20
2015,07,07,01,40,16.20
2015,07,07,01,41,16.20
2015,07,07,01,42,16.20
2015,07,07,01,43,16.20
2015,07,07,01,44,16.20
2015,07,07,01,45,16.20
2015,07,07,01,46,16.20
2015,07,07,01,47,16.10
2015,07,07,01,48,16.10
2015,07,07,01,49,16.10
2015,07,07,01,50,16.10
2015,07,07,01,51,16.10
2015,07,07,01,52,16.10
2015,07,07,01,53,16.10
2015,07,07,01,54,16.10
2015,07,07,01,55,16.10
2015,07,07,01,56,16.00
2015,07,07,01,57,16.00
2015,07,07,01,58,16.00
2015,07,07,01,59,16.00
2015,07,07,02,00,16.00
2015,07,07,02,01,16.00
2015,07,07,02,02,15.90
2015,07,07,02,03,15.90
2015,07,07,02,04,15.90
2015,07,07,02,05,15.90
2015,07,07,02,06,15.90
2015,07,07,02,07,15.80
2015,07,07,02,08,15.80
2015,07,07,02,09,15.80
2015,07,07,02,10,15.80
2015,07,07,02,11,15.80
2015,07,07,02,12,15.80
2015,07,07,02,13,15.80
2015,07,07,02,14,15.80
2015,07,07,02,15,15.80
2015,07,07,02,16,15.70
2015,07,07,02,17,15.70
2015,07,07,02,18,15.70
2015,07,07,02,19,15.70
2015,07,07,02,20,15.70
2015,07,07,02,21,15.70
2015,07,07,02,22,15.70
2015,07,07,02,23,15.70
2015,07,07,02,24,15.60
2015,07,07,02,25,15.60
2015,07,07,02,26,15.60
2015,07,07,02,27,15.60
2015,07,07,02,28,15.60
2015,07,07,02,29,15.60
2015,07,07,02,30,15.60
2015,07,07,02,31,15.50
2015,07,07,02,32,15.50
2015,07,07,02,33,15.50
2015,07,07,02,34,15.50
2015,07,07,02,35,15.40
2015,07,07,02,36,15.40
2015,07,07,02,37,15.40
2015,07,07,02,38,15.40
2015,07,07,02,39,15.40
2015,07,07,02,40,15.40
2015,07,07,02,41,15.40
2015,07,07,02,42,15.40
2015,07,07,02,43,15.40
2015,07,07,02,44,15.40
2015,07,07,02,45,15.30
2015,07,07,02,46,15.30
2015,07,07,02,47,15.30
2015,07,07,02,48,15.30
2015,07,07,02,49,15.30
2015,07,07,02,50,15.30
2015,07,07,02,51,15.30
2015,07,07,02,52,15.30
2015,07,07,02,53,15.20
2015,07,07,02,54,15.20
2015,07,07,02,55,15.20
2015,07,07,02,56,15.20
2015,07,07,02,57,15.20
2015,07,07,02,58,15.10
2015,07,07,02,59,15.10
2015,07,07,03,00,15.10
2015,07,07,03,01,15.10
2015,07,07,03,02,15.10
2015,07,07,03,03,15.10
2015,07,07,03,04,15.00
2015,07,07,03,05,15.00
2015,07,07,03,06,15.00
2015,07,07,03,07,15.00
2015,07,07,03,08,15.00
2015,07,07,03,09,15.00
2015,07,07,03,10,15.00
2015,07,07,03,11,14.90
2015,07,07,03,12,14.90
2015,07,07,03,13,14.90
2015,07,07,03,14,14.90
2015,07,07,03,15,14.90
2015,07,07,03,16,14.90
2015,07,07,03,17,14.90
2015,07,07,03,18,14.90
2015,07,07,03,19,14.90
2015,07,07,03,20,14.90
2015,07,07,03,21,14.90
2015,07,07,03,22,14.80
2015,07,07,03,23,14.80
2015,07,07,03,24,14.80
2015,07,07,03,25,14.80
2015,07,07,03,26,14.80
2015,07,07,03,27,14.80
2015,07,07,03,28,14.80
2015,07,07,03,29,14.80
2015,07,07,03,30,14.80
2015,07,07,03,31,14.80
2015,07,07,03,32,14.70
2015,07,07,03,33,14.70
2015,07,07,03,34,14.70
2015,07,07,03,35,14.70
2015,07,07,03,36,14.70
2015,07,07,03,37,14.70
2015,07,07,03,38,14.70
2015,07,07,03,39,14.70
2015,07,07,03,40,14.60
2015,07,07,03,41,14.60
2015,07,07,03,42,14.60
2015,07,07,03,43,14.60
2015,07,07,03,44,14.60
2015,07,07,03,45,14.60
2015,07,07,03,46,14.60
2015,07,07,03,47,14.60
2015,07,07,03,48,14.60
2015,07,07,03,49,14.60
2015,07,07,03,50,14.60
2015,07,07,03,51,14.60
2015,07,07,03,52,14.60
2015,07,07,03,53,14.60
2015,07,07,03,54,14.50
2015,07,07,03,55,14.50
2015,07,07,03,56,14.50
2015,07,07,03,57,14.50
2015,07,07,03,58,14.50
2015,07,07,03,59,14.50
2015,07,07,04,00,14.50
2015,07,07,04,01,14.40
2015,07,07,04,02,14.40
2015,07,07,04,03,14.40
2015,07,07,04,04,14.40
2015,07,07,04,05,14.40
2015,07,07,04,06,14.40
2015,07,07,04,07,14.40
2015,07,07,04,08,14.40
2015,07,07,04,09,14.40
2015,07,07,04,10,14.30
2015,07,07,04,11,14.30
2015,07,07,04,12,14.30
2015,07,07,04,13,14.30
2015,07,07,04,14,14.30
2015,07,07,04,15,14.30
2015,07,07,04,16,14.30
2015,07,07,04,17,14.30
2015,07,07,04,18,14.20
2015,07,07,04,19,14.20
2015,07,07,04,20,14.20
2015,07,07,04,21,14.20
2015,07,07,04,22,14.20
2015,07,07,04,23,14.20
2015,07,07,04,24,14.20
2015,07,07,04,25,14.10
2015,07,07,04,26,14.10
2015,07,07,04,27,14.10
2015,07,07,04,28,14.10
2015,07,07,04,29,14.10
2015,07,07,04,30,14.10
2015,07,07,04,31,14.10
2015,07,07,04,32,14.00
2015,07,07,04,33,14.00
2015,07,07,04,34,14.00
2015,07,07,04,35,14.00
2015,07,07,04,36,13.90
2015,07,07,04,37,13.90
2015,07,07,04,38,13.90
2015,07,07,04,39,13.90
2015,07,07,04,40,13.90
2015,07,07,04,41,13.90
2015,07,07,04,42,13.90
2015,07,07,04,43,13.90
2015,07,07,04,44,13.90
2015,07,07,04,45,13.80
2015,07,07,04,46,13.80
2015,07,07,04,47,13.80
2015,07,07,04,48,13.80
2015,07,07,04,49,13.80
2015,07,07,04,50,13.80
2015,07,07,04,51,13.80
2015,07,07,04,52,13.80
2015,07,07,04,53,13.80
2015,07,07,04,54,13.80
2015,07,07,04,55,13.80
2015,07,07,04,56,13.70
2015,07,07,04,57,13.70
2015,07,07,04,58,13.70
2015,07,07,04,59,13.70
2015,07,07,05,00,13.70
2015,07,07,05,01,13.70
2015,07,07,05,02,13.70
2015,07,07,05,03,13.70
2015,07,07,05,04,13.70
2015,07,07,05,05,13.70
2015,07,07,05,06,13.70
2015,07,07,05,07,13.70
2015,07,07,05,08,13.70
2015,07,07,05,09,13.60
2015,07,07,05,10,13.60
2015,07,07,05,11,13.60
2015,07,07,05,12,13.60
2015,07,07,05,13,13.60
2015,07,07,05,14,13.60
2015,07,07,05,15,13.60
2015,07,07,05,16,13.60
2015,07,07,05,17,13.60
2015,07,07,05,18,13.50
2015,07,07,05,19,13.50
2015,07,07,05,20,13.50
2015,07,07,05,21,13.50
2015,07,07,05,22,13.50
2015,07,07,05,23,13.50
2015,07,07,05,24,13.50
2015,07,07,05,25,13.50
2015,07,07,05,26,13.50
2015,07,07,05,27,13.40
2015,07,07,05,28,13.40
2015,07,07,05,29,13.40
2015,07,07,05,30,13.40
2015,07,07,05,31,13.40
2015,07,07,05,32,13.40
2015,07,07,05,33,13.40
2015,07,07,05,34,13.40
2015,07,07,05,35,13.40
2015,07,07,05,36,13.40
2015,07,07,05,37,13.40
2015,07,07,05,38,13.40
2015,07,07,05,39,13.40
2015,07,07,05,40,13.40
2015,07,07,05,41,13.40
2015,07,07,05,42,13.40
2015,07,07,05,43,13.40
2015,07,07,05,44,13.40
2015,07,07,05,45,13.40
2015,07,07,05,46,13.40
2015,07,07,05,47,13.40
2015,07,07,05,48,13.40
2015,07,07,05,49,13.30
2015,07,07,05,50,13.30
2015,07,07,05,51,13.30
2015,07,07,05,52,13.30
2015,07,07,05,53,13.30
2015,07,07,05,54,13.30
2015,07,07,05,55,13.30
2015,07,07,05,56,13.30
2015,07,07,05,57,13.30
2015,07,07,05,58,13.30
2015,07,07,05,59,13.30
2015,07,07,06,00,13.30
2015,07,07,06,01,13.30
2015,07,07,06,02,13.30
2015,07,07,06,03,13.30
2015,07,07,06,04,13.30
2015,07,07,06,05,13.30
2015,07,07,06,06,13.30
2015,07,07,06,07,13.30
2015,07,07,06,08,13.30
2015,07,07,06,09,13.30
2015,07,07,06,10,13.30
2015,07,07,06,11,13.30
2015,07,07,06,12,13.30
2015,07,07,06,13,13.30
2015,07,07,06,14,13.30
2015,07,07,06,15,13.30
2015,07,07,06,16,13.30
2015,07,07,06,17,13.30
2015,07,07,06,18,13.30
2015,07,07,06,19,13.30
2015,07,07,06,20,13.30
2015,07,07,06,21,13.30
2015,07,07,06,22,13.30
2015,07,07,06,23,13.30
2015,07,07,06,24,13.30
2015,07,07,06,25,13.30
2015,07,07,06,26,13.30
2015,07,07,06,27,13.30
2015,07,07,06,28,13.30
2015,07,07,06,29,13.30
2015,07,07,06,30,13.30
2015,07,07,06,31,13.30
2015,07,07,06,32,13.30
2015,07,07,06,33,13.40
2015,07,07,06,34,13.40
2015,07,07,06,35,13.40
2015,07,07,06,36,13.40
2015,07,07,06,37,13.40
2015,07,07,06,38,13.40
2015,07,07,06,39,13.40
2015,07,07,06,40,13.50
2015,07,07,06,41,13.50
2015,07,07,06,42,13.50
2015,07,07,06,43,13.50
2015,07,07,06,44,13.60
2015,07,07,06,45,13.60
2015,07,07,06,46,13.60
2015,07,07,06,47,13.60
2015,07,07,06,48,13.60
2015,07,07,06,49,13.60
2015,07,07,06,50,13.60
2015,07,07,06,51,13.70
2015,07,07,06,52,13.70
2015,07,07,06,53,13.70
2015,07,07,06,54,13.70
2015,07,07,06,55,13.70
2015,07,07,06,56,13.70
2015,07,07,06,57,13.70
2015,07,07,06,58,13.80
2015,07,07,06,59,13.80
2015,07,07,07,00,13.80
2015,07,07,07,01,13.80
2015,07,07,07,02,13.80
2015,07,07,07,03,13.90
2015,07,07,07,04,13.90
2015,07,07,07,05,13.90
2015,07,07,07,06,13.90
2015,07,07,07,07,13.90
2015,07,07,07,08,13.90
2015,07,07,07,09,14.00
2015,07,07,07,10,14.00
2015,07,07,07,11,14.00
2015,07,07,07,12,14.00
2015,07,07,07,13,14.10
2015,07,07,07,14,14.10
2015,07,07,07,15,14.10
2015,07,07,07,16,14.10
2015,07,07,07,17,14.20
2015,07,07,07,18,14.20
2015,07,07,07,19,14.20
2015,07,07,07,20,14.30
2015,07,07,07,21,14.30
2015,07,07,07,22,14.30
2015,07,07,07,23,14.30
2015,07,07,07,24,14.40
2015,07,07,07,25,14.40
2015,07,07,07,26,14.40
2015,07,07,07,27,14.40
2015,07,07,07,28,14.40
2015,07,07,07,29,14.50
2015,07,07,07,30,14.50
2015,07,07,07,31,14.50
2015,07,07,07,32,14.60
2015,07,07,07,33,14.60
2015,07,07,07,34,14.60
2015,07,07,07,35,14.60
2015,07,07,07,36,14.70
2015,07,07,07,37,14.70
2015,07,07,07,38,14.70
2015,07,07,07,39,14.70
2015,07,07,07,40,14.80
2015,07,07,07,41,14.80
2015,07,07,07,42,14.80
2015,07,07,07,43,14.90
2015,07,07,07,44,14.90
2015,07,07,07,45,14.90
2015,07,07,07,46,15.00
2015,07,07,07,47,15.00
2015,07,07,07,48,15.00
2015,07,07,07,49,15.00
2015,07,07,07,50,15.10
2015,07,07,07,51,15.10
2015,07,07,07,52,15.10
2015,07,07,07,53,15.20
2015,07,07,07,54,15.20
2015,07,07,07,55,15.20
2015,07,07,07,56,15.20
2015,07,07,07,57,15.30
2015,07,07,07,58,15.30
2015,07,07,07,59,15.30
2015,07,07,08,00,15.30
2015,07,07,08,01,15.40
2015,07,07,08,02,15.40
2015,07,07,08,03,15.40
2015,07,07,08,04,15.50
2015,07,07,08,05,15.50
2015,07,07,08,06,15.60
2015,07,07,08,07,15.60
2015,07,07,08,08,15.60
2015,07,07,08,09,15.60
2015,07,07,08,10,15.70
2015,07,07,08,11,15.70
2015,07,07,08,12,15.70
2015,07,07,08,13,15.70
2015,07,07,08,14,15.80
2015,07,07,08,15,15.80
2015,07,07,08,16,15.80
2015,07,07,08,17,15.80
2015,07,07,08,18,15.90
2015,07,07,08,19,15.90
2015,07,07,08,20,15.90
2015,07,07,08,21,16.00
2015,07,07,08,22,16.00
2015,07,07,08,23,16.10
2015,07,07,08,24,16.10
2015,07,07,08,25,16.10
2015,07,07,08,26,16.20
2015,07,07,08,27,16.20
2015,07,07,08,28,16.20
2015,07,07,08,29,16.30
2015,07,07,08,30,16.30
2015,07,07,08,31,16.40
2015,07,07,08,32,16.40
2015,07,07,08,33,16.50
2015,07,07,08,34,16.50
2015,07,07,08,35,16.60
2015,07,07,08,36,16.60
2015,07,07,08,37,16.60
2015,07,07,08,38,16.70
2015,07,07,08,39,16.70
2015,07,07,08,40,16.80
2015,07,07,08,41,16.80
2015,07,07,08,42,16.80
2015,07,07,08,43,16.90
2015,07,07,08,44,16.90
2015,07,07,08,45,16.90
2015,07,07,08,46,16.90
2015,07,07,08,47,17.00
2015,07,07,08,48,17.00
2015,07,07,08,49,17.00
2015,07,07,08,50,17.00
2015,07,07,08,51,17.10
2015,07,07,08,52,17.10
2015,07,07,08,53,17.10
2015,07,07,08,54,17.20
2015,07,07,08,55,17.20
2015,07,07,08,56,17.20
2015,07,07,08,57,17.30
2015,07,07,08,58,17.30
2015,07,07,08,59,17.40
2015,07,07,09,00,17.40
2015,07,07,09,01,17.50
2015,07,07,09,02,17.50
2015,07,07,09,03,17.60
2015,07,07,09,04,17.60
2015,07,07,09,05,17.60
2015,07,07,09,06,17.60
2015,07,07,09,07,17.60
2015,07,07,09,08,17.60
2015,07,07,09,09,17.60
2015,07,07,09,10,17.60
2015,07,07,09,11,17.60
2015,07,07,09,12,17.60
2015,07,07,09,13,17.60
2015,07,07,09,14,17.60
2015,07,07,09,15,17.60
2015,07,07,09,16,17.60
2015,07,07,09,17,17.70
2015,07,07,09,18,17.70
2015,07,07,09,19,17.70
2015,07,07,09,20,17.70
2015,07,07,09,21,17.70
2015,07,07,09,22,17.70
2015,07,07,09,23,17.70
2015,07,07,09,24,17.70
2015,07,07,09,25,17.70
2015,07,07,09,26,17.70
2015,07,07,09,27,17.70
2015,07,07,09,28,17.70
2015,07,07,09,29,17.70
2015,07,07,09,30,17.70
2015,07,07,09,31,17.70
2015,07,07,09,32,17.70
2015,07,07,09,33,17.70
2015,07,07,09,34,17.70
2015,07,07,09,35,17.70
2015,07,07,09,36,17.70
2015,07,07,09,37,17.70
2015,07,07,09,38,17.70
2015,07,07,09,39,17.70
2015,07,07,09,40,17.70
2015,07,07,09,41,17.70
2015,07,07,09,42,17.70
2015,07,07,09,43,17.60
2015,07,07,09,44,17.60
2015,07,07,09,45,17.60
2015,07,07,09,46,17.60
2015,07,07,09,47,17.70
2015,07,07,09,48,17.70
2015,07,07,09,49,17.80
2015,07,07,09,50,17.80
2015,07,07,09,51,17.90
2015,07,07,09,52,17.90
2015,07,07,09,53,17.90
2015,07,07,09,54,18.00
2015,07,07,09,55,18.00
2015,07,07,09,56,18.10
2015,07,07,09,57,18.10
2015,07,07,09,58,18.10
2015,07,07,09,59,18.20
2015,07,07,10,00,18.20
2015,07,07,10,01,18.30
2015,07,07,10,02,18.40
2015,07,07,10,03,18.40
2015,07,07,10,04,18.50
2015,07,07,10,05,18.50
2015,07,07,10,06,18.50
2015,07,07,10,07,18.60
2015,07,07,10,08,18.60
2015,07,07,10,09,18.60
2015,07,07,10,10,18.60
2015,07,07,10,11,18.60
2015,07,07,10,12,18.60
2015,07,07,10,13,18.60
2015,07,07,10,14,18.60
2015,07,07,10,15,18.60
2015,07,07,10,16,18.70
2015,07,07,10,17,18.70
2015,07,07,10,18,18.80
2015,07,07,10,19,18.80
2015,07,07,10,20,18.80
2015,07,07,10,21,18.90
2015,07,07,10,22,18.90
2015,07,07,10,23,18.90
2015,07,07,10,24,18.90
2015,07,07,10,25,19.00
2015,07,07,10,26,19.00
2015,07,07,10,27,19.00
2015,07,07,10,28,19.00
2015,07,07,10,29,19.00
2015,07,07,10,30,19.00
2015,07,07,10,31,19.00
2015,07,07,10,32,19.00
2015,07,07,10,33,19.10
2015,07,07,10,34,19.10
2015,07,07,10,35,19.10
2015,07,07,10,36,19.20
2015,07,07,10,37,19.20
2015,07,07,10,38,19.20
2015,07,07,10,39,19.30
2015,07,07,10,40,19.30
2015,07,07,10,41,19.30
2015,07,07,10,42,19.30
2015,07,07,10,43,19.30
2015,07,07,10,44,19.40
2015,07,07,10,45,19.40
2015,07,07,10,46,19.40
2015,07,07,10,47,19.40
2015,07,07,10,48,19.40
2015,07,07,10,49,19.40
2015,07,07,10,50,19.40
2015,07,07,10,51,19.40
2015,07,07,10,52,19.40
2015,07,07,10,53,19.40
2015,07,07,10,54,19.40
2015,07,07,10,55,19.40
2015,07,07,10,56,19.40
2015,07,07,10,57,19.50
2015,07,07,10,58,19.50
2015,07,07,10,59,19.50
2015,07,07,11,00,19.50
2015,07,07,11,01,19.50
2015,07,07,11,02,19.60
2015,07,07,11,03,19.60
2015,07,07,11,04,19.60
2015,07,07,11,05,19.60
2015,07,07,11,06,19.60
2015,07,07,11,07,19.60
2015,07,07,11,08,19.60
2015,07,07,11,09,19.60
2015,07,07,11,10,19.60
2015,07,07,11,11,19.50
2015,07,07,11,12,19.50
2015,07,07,11,13,19.50
2015,07,07,11,14,19.40
2015,07,07,11,15,19.40
2015,07,07,11,16,19.40
2015,07,07,11,17,19.40
2015,07,07,11,18,19.40
2015,07,07,11,19,19.40
2015,07,07,11,20,19.40
2015,07,07,11,21,19.40
2015,07,07,11,22,19.40
2015,07,07,11,23,19.40
2015,07,07,11,24,19.40
2015,07,07,11,25,19.40
2015,07,07,11,26,19.40
2015,07,07,11,27,19.40
2015,07,07,11,28,19.40
2015,07,07,11,29,19.50
2015,07,07,11,30,19.50
2015,07,07,11,31,19.50
2015,07,07,11,32,19.50
2015,07,07,11,33,19.50
2015,07,07,11,34,19.50
2015,07,07,11,35,19.50
2015,07,07,11,36,19.60
2015,07,07,11,37,19.60
2015,07,07,11,38,19.60
2015,07,07,11,39,19.70
2015,07,07,11,40,19.60
2015,07,07,11,41,19.60
2015,07,07,11,42,19.60
2015,07,07,11,43,19.60
2015,07,07,11,44,19.60
2015,07,07,11,45,19.60
2015,07,07,11,46,19.60
2015,07,07,11,47,19.60
2015,07,07,11,48,19.70
2015,07,07,11,49,19.70
2015,07,07,11,50,19.70
2015,07,07,11,51,19.60
2015,07,07,11,52,19.60
2015,07,07,11,53,19.60
2015,07,07,11,54,19.60
2015,07,07,11,55,19.50
2015,07,07,11,56,19.50
2015,07,07,11,57,19.50
2015,07,07,11,58,19.40
2015,07,07,11,59,19.30
2015,07,07,12,00,19.30
2015,07,07,12,01,19.30
2015,07,07,12,02,19.30
2015,07,07,12,03,19.20
2015,07,07,12,04,19.20
2015,07,07,12,05,19.20
2015,07,07,12,06,19.20
2015,07,07,12,07,19.10
2015,07,07,12,08,19.10
2015,07,07,12,09,18.90
2015,07,07,12,10,18.90
2015,07,07,12,11,18.80
2015,07,07,12,12,18.80
2015,07,07,12,13,18.70
2015,07,07,12,14,18.70
2015,07,07,12,15,18.70
2015,07,07,12,16,18.60
2015,07,07,12,17,18.50
2015,07,07,12,18,18.50
2015,07,07,12,19,18.40
2015,07,07,12,20,18.40
2015,07,07,12,21,18.40
2015,07,07,12,22,18.30
2015,07,07,12,23,18.30
2015,07,07,12,24,18.40
2015,07,07,12,25,18.40
2015,07,07,12,26,18.40
2015,07,07,12,27,18.40
2015,07,07,12,28,18.40
2015,07,07,12,29,18.40
2015,07,07,12,30,18.40
2015,07,07,12,31,18.40
2015,07,07,12,32,18.40
2015,07,07,12,33,18.40
2015,07,07,12,34,18.40
2015,07,07,12,35,18.40
2015,07,07,12,36,18.40
2015,07,07,12,37,18.50
2015,07,07,12,38,18.60
2015,07,07,12,39,18.60
2015,07,07,12,40,18.60
2015,07,07,12,41,18.70
2015,07,07,12,42,18.70
2015,07,07,12,43,18.60
2015,07,07,12,44,18.60
2015,07,07,12,45,18.60
2015,07,07,12,46,18.60
2015,07,07,12,47,18.60
2015,07,07,12,48,18.60
2015,07,07,12,49,18.60
2015,07,07,12,50,18.60
2015,07,07,12,51,18.60
2015,07,07,12,52,18.60
2015,07,07,12,53,18.50
2015,07,07,12,54,18.50
2015,07,07,12,55,18.40
2015,07,07,12,56,18.40
2015,07,07,12,57,18.30
2015,07,07,12,58,18.30
2015,07,07,12,59,18.30
2015,07,07,13,00,18.30
2015,07,07,13,01,18.30
2015,07,07,13,02,18.30
2015,07,07,13,03,18.30
2015,07,07,13,04,18.30
2015,07,07,13,05,18.40
2015,07,07,13,06,18.40
2015,07,07,13,07,18.50
2015,07,07,13,08,18.50
2015,07,07,13,09,18.60
2015,07,07,13,10,18.70
2015,07,07,13,11,18.80
2015,07,07,13,12,18.90
2015,07,07,13,13,19.00
2015,07,07,13,14,19.10
2015,07,07,13,15,19.20
2015,07,07,13,16,19.20
2015,07,07,13,17,19.20
2015,07,07,13,18,19.20
2015,07,07,13,19,19.10
2015,07,07,13,20,19.10
2015,07,07,13,21,19.10
2015,07,07,13,22,19.00
2015,07,07,13,23,19.00
2015,07,07,13,24,19.00
2015,07,07,13,25,18.90
2015,07,07,13,26,18.90
2015,07,07,13,27,18.90
2015,07,07,13,28,18.90
2015,07,07,13,29,18.90
2015,07,07,13,30,19.00
2015,07,07,13,31,19.10
2015,07,07,13,32,19.10
2015,07,07,13,33,19.10
2015,07,07,13,34,19.10
2015,07,07,13,35,19.10
2015,07,07,13,36,19.10
2015,07,07,13,37,19.20
2015,07,07,13,38,19.20
2015,07,07,13,39,19.30
2015,07,07,13,40,19.30
2015,07,07,13,41,19.40
2015,07,07,13,42,19.40
2015,07,07,13,43,19.40
2015,07,07,13,44,19.40
2015,07,07,13,45,19.40
2015,07,07,13,46,19.40
2015,07,07,13,47,19.40
2015,07,07,13,48,19.40
2015,07,07,13,49,19.50
2015,07,07,13,50,19.50
2015,07,07,13,51,19.60
2015,07,07,13,52,19.70
2015,07,07,13,53,19.70
2015,07,07,13,54,19.70
2015,07,07,13,55,19.80
2015,07,07,13,56,19.80
2015,07,07,13,57,19.90
2015,07,07,13,58,19.90
2015,07,07,13,59,20.00
2015,07,07,14,00,20.00
2015,07,07,14,01,20.00
2015,07,07,14,02,20.00
2015,07,07,14,03,20.00
2015,07,07,14,04,20.10
2015,07,07,14,05,20.10
2015,07,07,14,06,20.10
2015,07,07,14,07,20.10
2015,07,07,14,08,20.20
2015,07,07,14,09,20.20
2015,07,07,14,10,20.20
2015,07,07,14,11,20.20
2015,07,07,14,12,20.30
2015,07,07,14,13,20.30
2015,07,07,14,14,20.40
2015,07,07,14,15,20.50
2015,07,07,14,16,20.60
2015,07,07,14,17,20.60
2015,07,07,14,18,20.70
2015,07,07,14,19,20.70
2015,07,07,14,20,20.80
2015,07,07,14,21,20.80
2015,07,07,14,22,20.80
2015,07,07,14,23,20.80
2015,07,07,14,24,20.80
2015,07,07,14,25,20.80
2015,07,07,14,26,20.90
2015,07,07,14,27,20.90
2015,07,07,14,28,20.90
2015,07,07,14,29,20.90
2015,07,07,14,30,21.00
2015,07,07,14,31,21.00
2015,07,07,14,32,21.10
2015,07,07,14,33,21.20
2015,07,07,14,34,21.30
2015,07,07,14,35,21.40
2015,07,07,14,36,21.40
2015,07,07,14,37,21.40
2015,07,07,14,38,21.50
2015,07,07,14,39,21.50
2015,07,07,14,40,21.50
2015,07,07,14,41,21.60
2015,07,07,14,42,21.70
2015,07,07,14,43,21.70
2015,07,07,14,44,21.70
2015,07,07,14,45,21.80
2015,07,07,14,46,21.80
2015,07,07,14,47,21.80
2015,07,07,14,48,21.90
2015,07,07,14,49,21.90
2015,07,07,14,50,21.90
2015,07,07,14,51,21.90
2015,07,07,14,52,22.00
2015,07,07,14,53,22.00
2015,07,07,14,54,22.00
2015,07,07,14,55,22.00
2015,07,07,14,56,22.10
2015,07,07,14,57,22.10
2015,07,07,14,58,22.10
2015,07,07,14,59,22.10
2015,07,07,15,00,22.10
2015,07,07,15,01,22.20
2015,07,07,15,02,22.20
2015,07,07,15,03,22.30
2015,07,07,15,04,22.30
2015,07,07,15,05,22.30
2015,07,07,15,06,22.40
2015,07,07,15,07,22.40
2015,07,07,15,08,22.40
2015,07,07,15,09,22.50
2015,07,07,15,10,22.50
2015,07,07,15,11,22.60
2015,07,07,15,12,22.60
2015,07,07,15,13,22.60
2015,07,07,15,14,22.60
2015,07,07,15,15,22.60
2015,07,07,15,16,22.50
2015,07,07,15,17,22.50
2015,07,07,15,18,22.40
2015,07,07,15,19,22.40
2015,07,07,15,20,22.40
2015,07,07,15,21,22.40
2015,07,07,15,22,22.40
2015,07,07,15,23,22.40
2015,07,07,15,24,22.40
2015,07,07,15,25,22.40
2015,07,07,15,26,22.40
2015,07,07,15,27,22.40
2015,07,07,15,28,22.40
2015,07,07,15,29,22.40
2015,07,07,15,30,22.40
2015,07,07,15,31,22.40
2015,07,07,15,32,22.50
2015,07,07,15,33,22.50
2015,07,07,15,34,22.60
2015,07,07,15,35,22.60
2015,07,07,15,36,22.60
2015,07,07,15,37,22.60
2015,07,07,15,38,22.60
2015,07,07,15,39,22.60
2015,07,07,15,40,22.60
2015,07,07,15,41,22.60
2015,07,07,15,42,22.60
2015,07,07,15,43,22.70
2015,07,07,15,44,22.70
2015,07,07,15,45,22.70
2015,07,07,15,46,22.70
2015,07,07,15,47,22.70
2015,07,07,15,48,22.80
2015,07,07,15,49,22.80
2015,07,07,15,50,22.80
2015,07,07,15,51,22.90
2015,07,07,15,52,22.90
2015,07,07,15,53,22.90
2015,07,07,15,54,23.00
2015,07,07,15,55,23.00
2015,07,07,15,56,23.00
2015,07,07,15,57,23.10
2015,07,07,15,58,23.10
2015,07,07,15,59,23.10
2015,07,07,16,00,23.00
2015,07,07,16,01,23.00
2015,07,07,16,02,23.00
2015,07,07,16,03,23.00
2015,07,07,16,04,23.00
2015,07,07,16,05,23.00
2015,07,07,16,06,23.00
2015,07,07,16,07,23.00
2015,07,07,16,08,23.10
2015,07,07,16,09,23.10
2015,07,07,16,10,23.10
2015,07,07,16,11,23.20
2015,07,07,16,12,23.20
2015,07,07,16,13,23.20
2015,07,07,16,14,23.20
2015,07,07,16,15,23.20
2015,07,07,16,16,23.30
2015,07,07,16,17,23.30
2015,07,07,16,18,23.30
2015,07,07,16,19,23.30
2015,07,07,16,20,23.30
2015,07,07,16,21,23.30
2015,07,07,16,22,23.30
2015,07,07,16,23,23.30
2015,07,07,16,24,23.40
2015,07,07,16,25,23.50
2015,07,07,16,26,23.50
2015,07,07,16,27,23.60
2015,07,07,16,28,23.60
2015,07,07,16,29,23.60
2015,07,07,16,30,23.60
2015,07,07,16,31,23.60
2015,07,07,16,32,23.60
2015,07,07,16,33,23.60
2015,07,07,16,34,23.60
2015,07,07,16,35,23.60
2015,07,07,16,36,23.60
2015,07,07,16,37,23.50
2015,07,07,16,38,23.50
2015,07,07,16,39,23.50
2015,07,07,16,40,23.50
2015,07,07,16,41,23.50
2015,07,07,16,42,23.50
2015,07,07,16,43,23.60
2015,07,07,16,44,23.60
2015,07,07,16,45,23.60
2015,07,07,16,46,23.60
2015,07,07,16,47,23.60
2015,07,07,16,48,23.70
2015,07,07,16,49,23.70
2015,07,07,16,50,23.70
2015,07,07,16,51,23.80
2015,07,07,16,52,23.80
2015,07,07,16,53,23.80
2015,07,07,16,54,23.80
2015,07,07,16,55,23.80
2015,07,07,16,56,23.80
2015,07,07,16,57,23.80
2015,07,07,16,58,23.80
2015,07,07,16,59,23.90
2015,07,07,17,00,23.90
2015,07,07,17,01,23.90
2015,07,07,17,02,23.90
2015,07,07,17,03,23.90
2015,07,07,17,04,23.90
2015,07,07,17,05,23.90
2015,07,07,17,06,23.90
2015,07,07,17,07,23.90
2015,07,07,17,08,23.90
2015,07,07,17,09,23.90
2015,07,07,17,10,24.00
2015,07,07,17,11,24.00
2015,07,07,17,12,24.10
2015,07,07,17,13,24.20
2015,07,07,17,14,24.20
2015,07,07,17,15,24.30
2015,07,07,17,16,24.30
2015,07,07,17,17,24.30
2015,07,07,17,18,24.40
2015,07,07,17,19,24.40